World > North America > United States > New Mexico

Lamy, New Mexico Regional Weather

Lat: 35.48N, Lon: 105.88W
Wx Zone: NMZ518
Feedback

Lamy, NM Regional Weather

Expires:201910141400;;695412
ASUS45 KABQ 141301
RWRNM 
NEW MEXICO REGIONAL WEATHER ROUNDUP
NATIONAL WEATHER SERVICE ALBUQUERQUE NM
700 AM MDT MON OCT 14 2019

NOTE: "FAIR" MEANS FEW OR NO CLOUDS BELOW 12,000 FEET AGL WITH NO
       SIGNIFICANT WEATHER OR OBSTRUCTIONS TO VISION.

      THIS PRODUCT IS RELEASED AS TWO VERSIONS.  ONE VERSION NEAR
      THE TOP OF THE HOUR CONTAINING PRELIMINARY DATA FROM ALBUQUERQUE
      AND OTHER STATIONS.  A FINAL VERSION WITH ADDITIONAL DATA IS 
      ISSUED ABOUT 10 MINUTES AFTER THE HOUR.
 

NMZ501-503-504-510>518-141400-
NORTHWEST PLATEAU/NORTHCENTRAL MOUNTAINS
  
CITY           SKY/WX    TMP DP  RH WIND       PRES   REMARKS
FARMINGTON     FAIR      37  13  37 E9        30.11R WCI  30          
LOS ALAMOS     FAIR      47  20  35 CALM      30.18R                  
SANTA FE       FAIR      38  23  55 N9        30.14R WCI  31          
TAOS           FAIR      27  11  51 NE8       30.19R WCI  19          
ANGEL FIRE     FAIR      21  15  79 CALM      30.21S                  

$$

SKY/WX - Weather  TMP - Temperature  DP - Dew Point  RH - Relative Humidity
WIND - Wind Direction/Speed PRES - Barometric Pressure VSB - Visibility
WCI - Wind Chill Index E13G22 Wind - East Wind 13 mph/Gusts of 22 mph